Total_Precipitation_Accumulation
2.17 2.28 2.10 2.11 1.89 2.00 2.35 2.63 2.67 2.88 3.01 2.89 2.53 2.30 2.30 2.24 2.01 1.99 2.24 2.45 2.48 2.38 2.45 2.44 2.19 2.05 1.98 1.70 1.49 1.33 1.20 1.10 0.99 0.82 0.75 0.72 0.61 0.42 0.26 0.22 0.22 0.24 0.22
2.35 2.44 2.33 2.28 1.98 1.98 2.29 2.64 2.72 3.00 2.99 3.01 2.53 2.22 2.14 2.15 1.93 1.81 1.89 2.27 2.28 2.15 2.20 2.39 2.44 2.37 2.26 2.01 1.77 1.53 1.36 1.22 1.08 0.87 0.75 0.70 0.64 0.52 0.44 0.33 0.30 0.29 0.24
2.56 2.71 2.64 2.29 2.07 2.17 2.35 2.37 2.51 2.96 2.80 2.77 2.62 2.54 2.46 2.24 1.98 1.83 1.79 1.91 1.84 1.99 2.09 2.17 2.38 2.52 2.56 2.44 2.21 1.95 1.70 1.43 1.17 0.93 0.78 0.68 0.60 0.53 0.50 0.44 0.41 0.38 0.30
2.31 2.48 2.25 1.90 2.00 2.23 2.38 2.35 2.35 2.73 2.82 2.84 2.85 2.71 2.53 2.30 1.95 1.81 1.76 1.68 1.70 1.54 1.77 2.00 2.20 2.39 2.69 2.80 2.83 2.78 2.45 1.90 1.45 1.10 0.88 0.76 0.67 0.56 0.45 0.41 0.42 0.44 0.34
1.55 1.71 1.65 1.60 1.67 1.93 1.98 1.75 1.97 2.25 2.42 2.56 2.40 2.22 1.95 1.72 1.57 1.45 1.41 1.31 1.48 1.56 1.61 1.67 1.94 2.12 2.55 3.10 3.49 3.53 3.24 2.54 1.87 1.47 1.24 1.07 0.98 0.79 0.54 0.44 0.46 0.44 0.37
1.27 1.41 1.40 1.28 1.31 1.41 1.47 1.64 1.92 2.01 1.94 2.01 1.79 1.70 1.60 1.37 1.28 1.24 1.06 1.06 1.20 1.17 1.24 1.48 1.75 1.60 2.03 2.65 3.13 3.40 3.38 3.08 2.44 1.96 1.69 1.56 1.49 1.17 0.77 0.60 0.57 0.48 0.41
1.27 1.37 1.26 1.26 1.20 1.20 1.21 1.33 1.53 1.61 1.42 1.55 1.80 1.67 1.38 1.12 1.09 1.06 0.97 1.02 1.01 1.06 1.23 1.57 1.74 1.73 1.59 1.68 1.96 2.53 3.03 3.30 3.16 2.66 2.18 1.93 1.85 1.55 1.11 0.91 0.76 0.65 0.61
1.19 1.14 1.23 1.08 1.05 1.15 1.10 1.17 1.37 1.41 1.24 1.32 1.57 1.66 1.44 1.35 1.11 0.75 0.84 0.91 0.89 1.09 1.20 1.30 1.56 1.87 1.80 1.95 1.49 1.79 2.61 3.09 3.45 3.43 2.95 2.47 2.18 1.82 1.41 1.22 1.02 0.87 0.80
0.98 0.94 0.92 0.90 0.95 0.88 0.98 1.10 1.21 1.37 1.33 1.14 1.15 1.39 1.34 1.27 1.14 0.86 0.73 0.79 0.95 1.11 1.12 1.27 1.37 1.65 1.89 2.19 2.08 1.72 1.92 2.30 3.04 3.66 3.60 2.94 2.19 1.68 1.45 1.42 1.37 1.14 0.96
1.02 0.95 0.82 0.85 0.86 0.77 0.96 0.83 0.95 1.17 1.27 1.09 1.05 1.03 1.07 1.14 1.15 1.08 0.92 0.80 0.96 1.03 1.08 1.13 1.28 1.56 1.75 2.03 2.10 1.66 1.40 1.61 2.30 3.08 3.48 3.29 2.57 1.89 1.58 1.66 1.90 1.78 1.42
1.13 0.93 0.91 0.96 0.94 0.79 0.83 0.87 1.02 1.06 1.11 1.05 1.04 1.04 1.15 1.17 1.01 1.04 1.07 1.03 1.02 0.85 0.97 1.16 1.26 1.40 1.54 1.83 2.11 1.84 1.64 1.49 1.57 1.93 2.38 2.74 2.84 2.54 2.22 2.20 2.47 2.64 2.44
1.13 1.02 1.02 1.14 1.07 0.99 0.91 0.90 0.93 0.97 1.11 1.20 1.18 1.07 1.10 1.14 1.04 1.03 0.92 0.91 0.99 0.88 1.05 1.30 1.35 1.40 1.42 1.61 1.63 1.58 1.51 1.38 1.29 1.26 1.40 1.67 2.01 2.23 2.23 2.34 2.68 3.01 3.18
0.97 1.02 1.02 1.11 1.10 1.10 1.03 1.08 1.08 1.00 1.09 1.18 1.13 1.08 1.03 1.00 1.07 1.12 1.08 0.97 1.01 1.01 1.22 1.34 1.43 1.47 1.42 1.58 1.59 1.48 1.24 1.14 1.02 0.94 0.99 1.13 1.27 1.53 1.80 2.00 2.32 2.66 2.98
0.89 0.89 0.92 0.95 0.98 1.03 1.01 1.24 1.15 1.15 1.16 1.11 1.03 1.22 1.16 1.00 1.10 1.17 1.27 1.38 1.33 1.32 1.47 1.50 1.57 1.57 1.69 1.73 1.66 1.52 1.23 1.13 0.98 0.88 0.84 0.84 0.89 0.97 1.15 1.36 1.61 1.90 2.20
0.98 0.98 0.99 1.08 1.15 1.16 1.17 1.31 1.27 1.21 1.28 1.14 1.10 1.20 1.18 1.13 1.16 1.13 1.33 1.51 1.65 1.60 1.59 1.57 1.47 1.44 1.49 1.54 1.51 1.29 1.11 1.07 0.95 0.85 0.81 0.78 0.77 0.80 0.85 0.91 0.98 1.07 1.17
1.11 1.13 1.14 1.18 1.24 1.21 1.20 1.33 1.33 1.37 1.40 1.32 1.29 1.29 1.26 1.24 1.33 1.26 1.33 1.47 1.61 1.79 1.74 1.47 1.38 1.37 1.35 1.20 1.21 1.10 1.03 1.14 1.02 0.91 0.85 0.83 0.81 0.80 0.78 0.78 0.79 0.82 0.85
1.19 1.19 1.24 1.30 1.28 1.32 1.40 1.48 1.37 1.41 1.50 1.63 1.57 1.53 1.58 1.64 1.60 1.52 1.55 1.56 1.60 1.81 1.78 1.43 1.47 1.52 1.42 1.24 1.13 1.06 1.01 1.07 1.08 1.11 0.96 0.84 0.72 0.66 0.64 0.67 0.69 0.73 0.76
1.41 1.35 1.34 1.35 1.26 1.28 1.44 1.50 1.48 1.49 1.50 1.52 1.67 1.87 1.85 1.81 1.69 1.55 1.63 1.59 1.59 1.83 1.78 1.58 1.64 1.69 1.64 1.42 1.30 1.19 1.03 1.01 1.07 1.18 1.00 0.87 0.78 0.71 0.67 0.67 0.69 0.69 0.69
1.61 1.63 1.58 1.47 1.38 1.33 1.37 1.43 1.48 1.49 1.53 1.60 1.71 1.80 1.87 1.98 1.83 1.70 1.66 1.64 1.69 1.81 1.90 1.79 1.76 1.92 1.88 1.64 1.49 1.27 1.07 1.09 0.97 1.08 1.04 0.94 0.90 0.85 0.80 0.74 0.72 0.71 0.68
1.66 1.77 1.72 1.66 1.62 1.50 1.37 1.34 1.37 1.42 1.57 1.71 1.75 1.69 1.79 2.03 2.09 2.04 1.86 1.79 1.85 1.96 2.01 2.00 1.97 2.05 2.08 1.99 1.78 1.48 1.30 1.17 1.03 0.97 1.06 0.98 0.93 0.89 0.83 0.76 0.71 0.70 0.70
1.63 1.78 1.87 1.87 1.79 1.62 1.39 1.38 1.47 1.45 1.59 1.64 1.61 1.52 1.53 1.71 1.92 2.02 1.86 1.82 1.88 1.89 1.91 1.97 2.00 2.04 2.05 2.13 1.96 1.66 1.46 1.33 1.15 1.00 1.04 0.98 0.93 0.84 0.83 0.84 0.78 0.72 0.66
2.01 2.06 2.03 1.97 1.87 1.51 1.54 1.51 1.49 1.54 1.63 1.66 1.63 1.57 1.45 1.37 1.37 1.50 1.64 1.76 1.87 1.82 1.78 1.91 2.05 2.08 2.04 2.06 2.06 1.90 1.66 1.43 1.28 1.11 1.15 1.14 1.08 1.02 0.88 0.79 0.81 0.75 0.68
2.38 2.39 2.27 2.10 1.96 1.86 1.73 1.52 1.45 1.39 1.41 1.43 1.50 1.49 1.27 1.15 1.22 1.17 1.31 1.42 1.53 1.60 1.60 1.71 1.84 1.94 2.06 2.20 2.24 2.03 1.83 1.66 1.42 1.23 1.21 1.13 1.06 1.07 0.97 0.88 0.91 0.79 0.74
2.32 2.33 2.28 2.16 2.05 1.96 1.80 1.48 1.40 1.23 1.25 1.28 1.31 1.30 1.26 1.21 1.20 1.23 1.24 1.22 1.21 1.28 1.38 1.41 1.53 1.74 1.97 2.17 2.30 2.18 2.04 1.75 1.48 1.31 1.27 1.15 0.98 0.92 0.86 0.87 0.92 0.85 0.77
2.05 1.96 1.93 1.94 1.91 1.97 1.88 1.53 1.36 1.23 1.33 1.34 1.33 1.33 1.32 1.25 1.33 1.19 1.13 1.16 1.16 1.20 1.25 1.31 1.34 1.51 1.76 1.94 2.01 2.03 1.96 1.78 1.54 1.32 1.22 1.19 0.99 0.91 0.87 0.77 0.77 0.83 0.75
1.94 1.88 1.78 1.80 1.80 1.80 1.76 1.42 1.30 1.24 1.34 1.36 1.38 1.37 1.33 1.21 1.19 1.05 0.97 1.07 1.07 1.09 1.14 1.15 1.17 1.18 1.25 1.56 1.85 1.69 1.66 1.67 1.51 1.28 1.05 1.11 1.10 1.09 1.01 0.78 0.68 0.69 0.66